TimeEST,TemperatureF,Dew PointF,Humidity,Sea Level PressureIn,VisibilityMPH,Wind Direction,Wind SpeedMPH,Gust SpeedMPH,PrecipitationIn,Events,Conditions,WindDirDegrees,DateUTC
12:39 AM,42.8,35.6,76,30.25,10.0,North,9.2,-,N/A,,Scattered Clouds,360,2013-01-18 05:39:00
12:53 AM,43.0,36.0,76,30.26,10.0,North,8.1,-,N/A,,Scattered Clouds,350,2013-01-18 05:53:00
1:15 AM,42.8,35.6,76,30.26,10.0,NNW,8.1,-,N/A,,Mostly Cloudy,340,2013-01-18 06:15:00
1:34 AM,42.8,35.6,76,30.27,10.0,NNW,8.1,-,N/A,,Scattered Clouds,340,2013-01-18 06:34:00
1:53 AM,43.0,36.0,76,30.28,10.0,North,8.1,-,N/A,,Clear,350,2013-01-18 06:53:00
2:53 AM,42.1,36.0,79,30.31,10.0,North,6.9,-,N/A,,Clear,350,2013-01-18 07:53:00
3:53 AM,41.0,36.0,82,30.32,10.0,North,6.9,-,N/A,,Clear,360,2013-01-18 08:53:00
4:53 AM,39.9,35.1,83,30.34,10.0,North,4.6,-,N/A,,Clear,360,2013-01-18 09:53:00
5:53 AM,39.0,35.1,86,30.37,10.0,North,4.6,-,N/A,,Clear,360,2013-01-18 10:53:00
7:53 AM,37.9,34.0,86,30.42,10.0,North,4.6,-,N/A,,Clear,360,2013-01-18 12:53:00
8:53 AM,41.0,36.0,82,30.46,10.0,NNE,5.8,-,N/A,,Clear,20,2013-01-18 13:53:00
9:53 AM,45.0,36.0,71,30.49,10.0,NE,8.1,18.4,N/A,,Partly Cloudy,40,2013-01-18 14:53:00
10:53 AM,50.0,36.0,59,30.49,10.0,NE,12.7,-,N/A,,Clear,40,2013-01-18 15:53:00
11:53 AM,54.0,32.0,43,30.48,10.0,NE,11.5,17.3,N/A,,Clear,40,2013-01-18 16:53:00
12:53 PM,57.0,30.9,37,30.45,10.0,ENE,11.5,-,N/A,,Clear,60,2013-01-18 17:53:00
1:53 PM,59.0,28.9,32,30.43,10.0,NNE,8.1,16.1,N/A,,Clear,30,2013-01-18 18:53:00
2:53 PM,60.1,27.0,28,30.43,10.0,NE,10.4,19.6,N/A,,Clear,40,2013-01-18 19:53:00
3:53 PM,59.0,27.0,29,30.43,10.0,ENE,11.5,-,N/A,,Clear,70,2013-01-18 20:53:00
4:53 PM,57.9,28.0,32,30.43,10.0,NE,13.8,-,N/A,,Clear,50,2013-01-18 21:53:00
5:53 PM,55.0,28.0,35,30.45,10.0,NNE,6.9,-,N/A,,Clear,30,2013-01-18 22:53:00
6:53 PM,48.0,32.0,54,30.47,10.0,NNE,3.5,-,N/A,,Clear,20,2013-01-18 23:53:00
7:53 PM,44.1,33.1,65,30.47,9.0,Calm,Calm,-,N/A,,Clear,0,2013-01-19 00:53:00
8:53 PM,41.0,33.1,73,30.48,10.0,NNE,3.5,-,N/A,,Clear,30,2013-01-19 01:53:00
9:53 PM,41.0,34.0,76,30.48,10.0,Calm,Calm,-,N/A,,Clear,0,2013-01-19 02:53:00
10:53 PM,39.9,30.0,68,30.48,10.0,NE,3.5,-,N/A,,Clear,50,2013-01-19 03:53:00
11:53 PM,37.9,30.0,73,30.46,10.0,ENE,5.8,-,N/A,,Clear,60,2013-01-19 04:53:00